#timestamp,LO_Frequency,Hit,StdDev 
1652029215.0,286047000.3,N
1652029215.9,286047000.3,N
1652029235.8,286047002.8,N
1652029255.6,286047002.8,N
1652029275.5,286047005.9,N
1652029295.3,286047003.3,N
1652029315.1,286047001.7,N
1652029335.9,286047004.4,N
1652029355.7,286047003.0,N
1652029375.5,286047001.5,N
1652029395.4,286046998.1,N
1652029415.2,286046999.2,N
1652029435.1,286046998.4,N
1652029436.0,286046998.4,N
1652029455.8,286046999.8,N
1652029475.6,286046998.8,N
1652029495.5,286047001.0,N
1652029515.3,286046999.9,N
1652029535.1,286047004.0,N
1652029555.9,286047001.9,N
1652029575.7,286047002.2,N
1652029595.6,286047002.4,N
1652029615.4,286047002.7,N
1652029635.2,286047001.7,N
1652029655.1,286047004.1,N
1652029656.0,286047004.1,N
1652029675.8,286047004.2,N
1652029695.7,286047003.6,N
1652029715.5,286047003.3,N
1652029735.3,286047002.4,N
1652029755.2,286047002.8,N
1652029775.9,286047003.2,N
1652029795.7,286047002.2,N
1652029815.6,286047001.5,N
1652029835.4,286047001.8,N
1652029855.3,286047002.3,N
1652029875.1,286047002.3,N
1652029876.0,286047002.3,N
1652029895.8,286047004.1,N
1652029915.7,286047001.7,N
1652029935.5,286047005.4,N
1652029955.3,286047004.2,N
1652029975.2,286047003.4,N
1652029995.0,286047001.3,N
1652029995.9,286047001.3,N
1652030015.8,286047004.3,Y
1652030035.6,286047000.1,P
1652030055.4,286046998.6,N
1652030075.3,286047000.5,N
1652030095.1,286046996.7,N
1652030115.9,286046997.1,N
1652030135.7,286046996.6,N
1652030155.5,286047000.7,N
1652030175.4,286047000.5,N
1652030195.2,286047000.4,N
1652030215.0,286047000.8,N
1652030215.9,286047000.8,N
1652030235.8,286046998.6,N
1652030255.6,286047000.5,N
1652030275.5,286046998.4,N
1652030295.3,286047002.4,N
1652030315.1,286047001.1,N
1652030335.9,286047000.8,N
1652030355.7,286047002.5,N
1652030375.6,286047001.3,N
1652030395.4,286047005.9,Y
1652030415.2,286047002.6,P
1652030435.1,286046999.8,N
1652030436.0,286046999.8,N
1652030455.8,286047000.5,N
1652030475.6,286046998.3,N
1652030495.5,286047000.9,N
1652030515.3,286046996.5,N
1652030535.2,286047001.0,N
1652030555.9,286047001.0,N
1652030575.7,286047002.0,N
1652030595.6,286047002.9,N
1652030615.4,286047001.4,N
1652030635.2,286047000.0,N
1652030655.1,286047000.6,N
1652030656.0,286047000.6,N
1652030675.8,286046999.8,N
1652030695.7,286047005.8,Y
1652030715.5,286047001.8,P
1652030735.3,286047003.2,P
1652030755.2,286047004.4,P
1652030775.0,286047001.8,N
1652030775.9,286047001.8,N
1652030795.8,286047004.4,Y
1652030815.6,286046998.2,P
1652030835.4,286046997.1,N
1652030855.3,286046995.4,N
1652030875.1,286046993.4,N
1652030895.8,286046992.5,N
1652030915.7,286046993.1,N
1652030935.5,286046993.2,N
1652030955.4,286046993.8,N
1652030975.2,286046992.9,N
1652030995.0,286046993.3,N
1652030995.9,286046993.3,N
1652031015.8,286046995.0,N
1652031035.6,286046995.3,N
1652031055.5,286046996.3,N
1652031075.3,286046995.1,N
1652031095.1,286046996.1,N
1652031115.9,286046993.8,N
1652031135.7,286046997.9,N
1652031155.5,286046995.3,N
1652031175.4,286046997.6,N
1652031195.2,286046997.1,N
1652031215.1,286046999.2,N
1652031216.0,286046999.2,N
1652031235.8,286046997.9,N
1652031255.6,286046997.7,N
1652031275.5,286046999.4,N
1652031295.3,286046997.7,N
1652031315.1,286046995.2,N
1652031335.9,286046996.0,N
1652031355.7,286046995.7,N
1652031375.6,286046997.6,N
1652031395.4,286046997.7,N
1652031415.2,286046997.4,N
1652031435.1,286046997.4,N
1652031436.0,286046997.4,N
1652031455.8,286046997.5,N
1652031475.7,286046998.2,N
1652031495.5,286046999.6,N
1652031515.3,286046995.0,N
1652031535.2,286046998.0,N
1652031555.0,286046994.3,Y
1652031555.9,286046994.3,P
1652031575.7,286046999.5,N
1652031595.6,286046998.6,N
1652031615.4,286047000.5,N
1652031635.3,286047001.8,N
1652031655.1,286047001.0,N
1652031675.8,286047000.3,N
1652031695.7,286047004.4,N
1652031715.5,286047007.2,N
1652031735.4,286047004.1,N
1652031755.2,286047003.7,N
1652031775.0,286047002.0,N
1652031775.9,286047002.0,N
1652031795.8,286047004.4,N
1652031815.6,286047002.8,N
1652031835.4,286047001.0,N
1652031855.3,286047001.1,N
1652031875.1,286047001.1,N
1652031895.9,286047001.5,N
1652031915.7,286047002.6,N
1652031935.5,286046999.8,N
1652031955.4,286047002.6,N
1652031975.2,286047003.9,N
1652031995.0,286047003.5,N
1652031995.9,286047003.5,N
1652032015.8,286047004.1,N
1652032035.6,286047004.0,N
1652032055.5,286047003.8,N
1652032075.3,286047001.3,N
1652032095.1,286047001.9,N
1652032115.9,286047000.2,N
1652032135.7,286047002.3,N
1652032155.5,286047000.9,N
1652032175.4,286046998.8,N
1652032195.2,286047001.0,N
1652032215.1,286047000.1,N
1652032216.0,286047000.1,N
1652032235.8,286047002.0,N
1652032255.6,286047002.7,N
1652032275.5,286046999.7,N
1652032295.3,286047000.1,N
1652032315.1,286047002.0,N
1652032335.9,286047000.0,N
1652032355.7,286047000.7,N
1652032375.6,286047002.7,N
1652032395.4,286047001.3,N
1652032415.2,286047004.0,N
1652032435.1,286047003.6,N
1652032436.0,286047003.6,N
1652032455.8,286047004.0,N
1652032475.7,286047002.1,N
1652032495.5,286047004.4,N
1652032515.3,286047001.3,N
1652032535.2,286047002.5,N
1652032555.9,286047000.4,N
1652032575.7,286047000.9,N
1652032595.6,286046998.5,N
1652032615.4,286046998.1,N
1652032635.3,286047000.0,N
1652032655.1,286046999.1,N
1652032656.0,286046999.1,N
1652032675.8,286046998.1,N
1652032695.7,286046998.4,N
1652032715.5,286046997.2,N
1652032735.3,286046999.3,N
1652032755.2,286046998.9,N
1652032775.0,286046998.6,N
1652032775.9,286046998.6,N
1652032795.8,286046998.6,N
